Location: Lynch Observatory
(39.9540°N, 75.1861°W)
Time: 19:29:04
(UTC-04:00)

DOVE 4 - Pass Details

Date: 26 April 2024
Orbit: 582 x 778 km, 97.7° (Epoch: 28 May)

Event Time Altitude Azimuth Distance (km) Brightness Sun altitude
Rises 22:05:58 0° 21° (NNE) 2,933 ? -22.8°
Reaches altitude 10° 22:08:15 10° 29° (NNE) 2,050 ? -23.2°
Enters shadow 22:10:51 29° 56° (NE) 1,219 ? -23.5°
